Other Public Products
Issued by NWS Charleston, SC

Current Version | Previous Version | Graphics & Text | Print | Product List | Glossary On
Versions: 1 2 3 4 5 6 7 8 9 10 11 12 13 14 15 16 17 18 19 20 21 22 23 24 25 26 27 28 29 30 31 32 33 34 35 36 37 38 39 40 41 42 43 44 45 46 47 48 49 50
627
FPUS82 KCHS 231411
OPUCHS

TEST...KCHS/KSAV Gateway Observations...TEST
National Weather Service Charleston SC
900 AM EST THU FEB 23 2017

NOTE: "fair" indicates few or no clouds below 12,000 feet with no
significant weather and/or obstructions to visibility.

SCZ050-WAZ558-NCZ071-TXZ119-213-PAZ071-DCZ001-FLZ074-172-MI076-
NYZ176-178-MAZ016-IL014-TNZ027-NJZ106-GAZ044-MD014-231500-
...Gateway Observations for Charleston International...

CITY           SKY/WX    TMP DP  RH WIND       PRES   REMARKS
Chas Airport   CLOUDY    63  58  83 N9        29.89R
Seattle        CLOUDY    35  35 100 S3        30.22S
Charlotte      MOSUNNY   61  54  77 N5        29.95S
Dallas DFW     MOSUNNY   60  49  66 S10       29.63R
Dallas Love    MOSUNNY   62  48  60 S10       29.65R
Philladelphia  CLOUDY    51  50  96 S5        29.92S FOG
Wash National  MOSUNNY   59  54  83 S8        29.91S
Baltimore      MOSUNNY   54  52  93 CALM      29.91R
Miami          MOSUNNY   67  60  78 SW7       29.68R
Detroit        MOSUNNY   58  53  84 SW12      29.71R HAZE
Newark         DRZL/FOG  46  45  96 SW5       29.91S VSB 1
Laguardia      CLOUDY    48  43  82 CALM      29.92R HAZE
J F K          FOG       44  44 100 S5        29.93R VSB 1/4
Boston Logan   MOSUNNY   45  40  82 S7        29.88R
Ft. Lauderdale MOSUNNY   68  63  84 W6        29.67R
Chicago O`Hare MOSUNNY   50  42  74 N8        29.75R
Chicago Midway MOSUNNY   51  42  71 N8        29.77R
Houston Bush   SUNNY     59  57  93 SE5       29.78R
Houston Hobby  SUNNY     59  58  96 SE5       29.78R
Nashville      CLOUDY    58  55  90 S6        29.88R
Atlanta        MOSUNNY   59  56  89 E9        29.92R

$$

GAZ044-118-TXZ119-213-NCZ071-DCZ001-MDZ014-506-PAZ021-071-NJZ106-
NYZ176-178-MAZ106-OHZ011-021-055-MIZ076-KYZ091-ILZ014-INZ047-
MNZ060-ONZ431-231500-
...Gateway Observations for Savannah International...

CITY           SKY/WX    TMP DP  RH WIND       PRES   REMARKS
Savannah Arpt  PTSUNNY   64  58  80 NE13      29.84F
Atlanta        MOSUNNY   59  56  89 E9        29.92R
Charlotte      MOSUNNY   61  54  77 N5        29.95S
Dallas DFW     MOSUNNY   60  49  66 S10       29.63R
Houston Bush   SUNNY     59  57  93 SE5       29.78R
Wash National  MOSUNNY   59  54  83 S8        29.91S
Wash Dulles    MOSUNNY   59  52  77 S7        29.90S
Baltimore      MOSUNNY   54  52  93 CALM      29.91R
Philadelphia   CLOUDY    51  50  96 S5        29.92S FOG
Newark         DRZL/FOG  46  45  96 SW5       29.91S VSB 1
Laguardia      CLOUDY    48  43  82 CALM      29.92R HAZE
J F K          FOG       44  44 100 S5        29.93R VSB 1/4
Boston         MOSUNNY   45  40  82 S7        29.88R
Pittsburg      CLOUDY    58  55  90 SW10      29.82R
Akron          CLOUDY    59  54  83 SW13      29.79R HAZE
Cleveland      CLOUDY    62  54  74 SW13      29.77R
Cincinnati     CLOUDY    60  56  86 SW13      29.82R
Columbus       PTSUNNY   58  56  93 S12       29.81S
Detroit        MOSUNNY   58  53  84 SW12      29.71R HAZE
Chicago O`Hare MOSUNNY   50  42  74 N8        29.75R
Minneapolis    CLOUDY    32  24  72 N10       29.91R WCI  24
Indianapolis   MOSUNNY   58  56  93 SW7       29.77R
Toronto Canada CLOUDY    57  54  88 SW13G20   29.60F

$$




USA.gov is the U.S. government's official web portal to all federal, state and local government web resources and services.